DHK052 EGNX-EBBR

Flight info

Callsign DHK052
Flight time N/A
Altitude 29000
Route SAPCO UY53 DTY UM605 BENSU Q70 VABIK/N0436F230 Q70 KOK
Aircraft B77L/H-SDE1E2E3FGHIJ2J3J4J5M1RWXY/LB1D1

Departure

Time 2026-05-03 21:01
Airport East Midlands Airport (EGNX)

Arrival

Time N/A
Airport Brussels Airport (EBBR)
Time Latitude Longitude Altitude Speed Heading
2026-05-03 20:43 52.82759 -1.34954 307 ft 0 kts 178°
2026-05-03 20:52 52.82760 -1.34954 307 ft 0 kts 178°
2026-05-03 20:52 52.82772 -1.34955 305 ft 2 kts 178°
2026-05-03 20:53 52.82788 -1.34956 305 ft 3 kts 166°
2026-05-03 20:53 52.82804 -1.34966 305 ft 3 kts 137°
2026-05-03 20:53 52.82815 -1.34988 305 ft 3 kts 113°
2026-05-03 20:53 52.82821 -1.35018 303 ft 3 kts 98°
2026-05-03 20:54 52.82823 -1.35051 303 ft 3 kts 90°
2026-05-03 20:54 52.82823 -1.35070 303 ft 1 kts 88°
2026-05-03 20:57 52.82824 -1.35015 303 ft 8 kts 88°
2026-05-03 20:58 52.82826 -1.34925 305 ft 8 kts 88°
2026-05-03 20:58 52.82829 -1.34776 305 ft 18 kts 88°
2026-05-03 20:58 52.82834 -1.34515 308 ft 23 kts 86°
2026-05-03 20:58 52.82882 -1.34431 312 ft 3 kts 349°
2026-05-03 20:59 52.82900 -1.34469 311 ft 10 kts 291°
2026-05-03 20:59 52.82921 -1.34635 310 ft 10 kts 311°
2026-05-03 20:59 52.82986 -1.34666 307 ft 10 kts 356°
2026-05-03 20:59 52.83050 -1.34619 310 ft 10 kts 48°
2026-05-03 21:00 52.83070 -1.34500 305 ft 11 kts 88°
2026-05-03 21:00 52.83070 -1.34469 305 ft 1 kts 88°
2026-05-03 21:00 52.83082 -1.33867 309 ft 110 kts 88°
2026-05-03 21:00 52.83115 -1.32039 684 ft 188 kts 86°
2026-05-03 21:01 52.83146 -1.29910 2186 ft 177 kts 86°
2026-05-03 21:01 52.83077 -1.27835 3347 ft 190 kts 93°
2026-05-03 21:01 52.83033 -1.27077 3495 ft 201 kts 94°